Location: Bacea
(45.9500°N, 22.6667°E)
Time: 23:30:23
(UTC+00:00)

SL-19 R/B - Pass Details

Date: 16 October 2021
Orbit: 874 x 1209 km, 100.6° (Epoch: 26 November)

Event Time Altitude Azimuth Distance (km) Brightness Sun altitude
Rises 16:19:23 0° 17° (NNE) 3,648 7.3 -7.3°
Reaches altitude 10° 16:21:54 10° 19° (NNE) 2,658 6.6 -7.8°
Maximum altitude 16:27:47 80° 107° (ESE) 915 4.3 -8.8°
Drops below altitude 10° 16:33:21 10° 194° (SSW) 2,524 6.9 -9.8°
Sets 16:35:41 0° 196° (SSW) 3,452 7.6 -10.2°
